EWS-G3 (GOES 14) 1 35491U 09033A 26237.18636387 -.00000257 00000+0 00000+0 0 9992 2 35491 1.8612 82.1282 0002249 69.3690 346.9137 1.00077519 7285 EWS-G2 (GOES 15) 1 36411U 10008A 26237.20140830 .00000018 00000+0 00000+0 0 9999 2 36411 1.4623 82.0152 0005636 68.2318 319.1044 1.00274483 60332 GOES 16 1 41866U 16071A 26237.26711253 -.00000094 00000+0 00000+0 0 9999 2 41866 0.5032 84.9654 0001330 107.4133 132.5994 1.00273103 35793 GOES 17 1 43226U 18022A 26237.26155740 -.00000186 00000+0 00000+0 0 9994 2 43226 1.1082 84.5901 0000810 94.8946 158.7202 1.00272384 31115 GOES 18 1 51850U 22021A 26237.20896639 .00000094 00000+0 00000+0 0 9990 2 51850 0.0178 301.9286 0000391 248.8900 80.8863 1.00271934 7287 GOES 19 1 60133U 24119A 26237.27892053 -.00000251 00000+0 00000+0 0 9993 2 60133 0.0096 290.5941 0000274 289.5152 138.6576 1.00272721 7651